TUSUR GO (RS78S)

Last updated on Mon Nov 03 2025 00:03:22 GMT+0000 (Coordinated Universal Time)

1 61782U 24199AZ 25306.52541229 .00049237 00000+0 96515-3 0 9998 2 61782 97.3253 176.0424 0012644 35.1781 325.0301 15.47131074 99433
UTC large
Height (km)
Speed (km/s)
/
Latitude / Longitude
Inclination (degrees)
Orbital Period (minutes)
Azimuth
Elevation
Range (km)
Doppler Factor

Next 0 passes for location: London (51.5072 / 0.1276)

Sorry there are no passes over London.